TimeMDT,TemperatureF,Dew PointF,Humidity,Sea Level PressureIn,VisibilityMPH,Wind Direction,Wind SpeedMPH,Gust SpeedMPH,PrecipitationIn,Events,Conditions,WindDirDegrees,DateUTC
12:52 AM,27.0,21.0,78,30.15,10.0,NW,8.1,-,N/A,,Partly Cloudy,310,2013-04-10 06:52:00
1:52 AM,26.1,21.0,81,30.15,10.0,Variable,3.5,-,N/A,,Partly Cloudy,0,2013-04-10 07:52:00
2:52 AM,28.0,21.0,75,30.14,10.0,NNW,8.1,-,N/A,,Clear,330,2013-04-10 08:52:00
3:52 AM,24.1,19.0,81,30.15,10.0,Calm,Calm,-,N/A,,Clear,0,2013-04-10 09:52:00
4:52 AM,21.9,18.0,85,30.15,10.0,NNW,4.6,-,N/A,,Clear,340,2013-04-10 10:52:00
5:52 AM,21.0,16.0,81,30.17,10.0,Calm,Calm,-,N/A,,Clear,0,2013-04-10 11:52:00
6:52 AM,21.0,17.1,85,30.18,10.0,Calm,Calm,-,N/A,,Clear,0,2013-04-10 12:52:00
7:52 AM,25.0,19.9,81,30.19,10.0,Calm,Calm,-,N/A,,Clear,0,2013-04-10 13:52:00
8:52 AM,28.9,21.9,75,30.20,10.0,Calm,Calm,-,N/A,,Clear,0,2013-04-10 14:52:00
9:52 AM,37.0,24.1,59,30.19,10.0,North,6.9,-,N/A,,Clear,10,2013-04-10 15:52:00
10:52 AM,39.9,21.9,49,30.19,10.0,NNE,11.5,-,N/A,,Clear,30,2013-04-10 16:52:00
11:52 AM,43.0,23.0,45,30.18,10.0,NNE,10.4,18.4,N/A,,Clear,30,2013-04-10 17:52:00
12:52 PM,46.0,23.0,40,30.17,10.0,North,10.4,19.6,N/A,,Clear,360,2013-04-10 18:52:00
1:52 PM,48.0,21.9,36,30.15,10.0,NE,13.8,19.6,N/A,,Clear,40,2013-04-10 19:52:00
2:52 PM,51.1,23.0,33,30.12,10.0,Variable,6.9,21.9,N/A,,Clear,0,2013-04-10 20:52:00
3:52 PM,52.0,21.0,30,30.11,10.0,NNE,13.8,21.9,N/A,,Clear,20,2013-04-10 21:52:00
4:52 PM,53.1,21.9,30,30.08,10.0,North,11.5,18.4,N/A,,Clear,360,2013-04-10 22:52:00
5:52 PM,54.0,21.9,29,30.07,10.0,NNE,9.2,-,N/A,,Overcast,30,2013-04-10 23:52:00
6:52 PM,51.1,21.9,32,30.06,10.0,ENE,4.6,-,N/A,,Clear,60,2013-04-11 00:52:00
7:52 PM,46.9,26.1,44,30.06,10.0,ESE,4.6,-,N/A,,Clear,120,2013-04-11 01:52:00
8:52 PM,39.9,28.0,63,30.06,10.0,Calm,Calm,-,N/A,,Clear,0,2013-04-11 02:52:00
9:52 PM,37.0,28.9,73,30.05,10.0,SW,5.8,-,N/A,,Clear,220,2013-04-11 03:52:00
10:52 PM,36.0,28.9,76,30.04,10.0,South,5.8,-,N/A,,Clear,170,2013-04-11 04:52:00
11:52 PM,37.0,28.9,73,30.03,10.0,SSW,6.9,-,N/A,,Clear,210,2013-04-11 05:52:00